DELTA 1 DEB, 10198

Orbit data source: Space-Track

DELTA 1 DEB, 10198 is space debris in LEO originally from a launch on Thu, 14 Jul 1977 UTC launched from the Air Force Eastern Test Range (AFETR). Debris objects in space refer to the collection of defunct objects orbiting the Earth. Examples of debris include non-operational satellites, rocket bodies, and fragments generated from explosions, collisions, or faulty payload assembly.

Loading next visibility...
Identifier
10198, 1977-065AB
Orbit
LEO
Last TLE update
9 hours ago
Origin
Manufacturer
Unknown
Mission
Spacecraft
Bus & Motor
Unknown
Mass
Unknown
Launch date (UTC)
1977-07-14 (48 years ago)
Launch vehicle
Unknown
Launch site
Air Force Eastern Test Range (AFETR)
Object type
Payload
Rocket body
Debris
Shape & HBR
Unknown
Radar Cross Section
Small (<0.1 m²)

Expand to show TLE details & history

TLE from 9 hours ago
0 DELTA 1 DEB
1 10198U 77065AB  25182.04633017  .00000360  00000-0  23897-3 0  9997
2 10198  29.5653  89.8033 0599538 344.2966  13.9723 13.29030242282996
Epoch: 2025-07-01T01:06Z
TLE epoch observation values (Epoch: 2025-07-01T01:06:42.926Z)
Latitude
-0.00004°
Longitude
153.77696°
Altitude
712.747 km
Speed
7.715 km/s
True Right ascension
05h 59m 12s
True Declination
0° 00' 00"
Sunlit
Object was in daylight at epoch
Visualization orbit readout
Latitude
-28.27894°
Longitude
81.38612°
Altitude
911.865 km
Speed
7.516 km/s
Apparent Right ascension
04h 20m 54s
Apparent Declination
-53° 54' 54"
Sunlit
Object is in daylight
Visualization observer readout
Local Sidereal Time
21:26:16
Azimuth
132.832° SE
Elevation
-38.7°
Doppler factor
1
Orbital elements
Apogee altitude
1,605.753 km
Perigee altitude
702.573 km
Semi-major axis
7,532.3 km
Eccentricity
0.05995
Inclination
29.5653°
RAAN
89.8033°
Arg. of periapsis
344.2966°
True anomaly
Unknown
Mean anomaly
13.9723°
Eccentric anomaly
Unknown
Mean motion
3.3201 °/min
Orbital period
108.43 mins
BSTAR
0.00023897
Loading maneuver chart data...
Loading SW <> Apogee altitude chart data...
Loading historical data...
Loading historical data...
Loading historical data...
Loading historical data...
Loading historical data...
Loading historical data...
Loading historical data...

DELTA 1 DEB Visibility forecast

Observer location: undefined°, undefined°

Span
Click to sort rows by Start time (UTC) header in descending order
Start Az.
Max El. time (UTC)
Max El. Az.
Max El.
End time (UTC)
End Az.
7 mins2025-07-01 21:09:55.378Z187.79° SSW2025-07-01 21:12:55.378Z154.701° SSE17.192°2025-07-01 21:16:55.378Z116.828° SE
11 mins2025-07-01 23:02:55.378Z224.619° SW2025-07-01 23:06:55.378Z177.246° S29.372°2025-07-01 23:13:55.378Z110.191° ESE
13 mins2025-07-02 00:56:55.378Z244.32° WSW2025-07-02 01:02:55.378Z177.801° S31.202°2025-07-02 01:09:55.378Z124.189° SE
12 mins2025-07-02 02:52:55.378Z241.051° WSW2025-07-02 02:57:55.378Z197.454° SSW23.534°2025-07-02 03:04:55.378Z150.015° SSE
|